Satellite: FITSAT 1
Catalog number: 38853
Epoch time:      12306.88956816
Element set:      28
Inclination:      051.6480 deg
RA of node:       157.0628 deg
Eccentricity:    0.0015249
Arg of perigee:   237.3513 deg
Mean anomaly:     122.5888 deg
Mean motion:   15.53650536 rev/day
Decay rate:     3.6941e-04 rev/day^2
Epoch rev:             437
Checksum:              316

Satellite: TechEdSat
Catalog number: 38854
Epoch time:      12306.81817234
Element set:      30
Inclination:      051.6472 deg
RA of node:       157.3350 deg
Eccentricity:    0.0015127
Arg of perigee:   234.8088 deg
Mean anomaly:     125.1480 deg
Mean motion:   15.54419795 rev/day
Decay rate:     4.6636e-04 rev/day^2
Epoch rev:             436
Checksum:              291

Satellite: F 1
Catalog number: 38855
Epoch time:      12306.75500478
Element set:      31
Inclination:      051.6463 deg
RA of node:       157.6570 deg
Eccentricity:    0.0012899
Arg of perigee:   242.0038 deg
Mean anomaly:     117.9372 deg
Mean motion:   15.54323784 rev/day
Decay rate:     4.8543e-04 rev/day^2
Epoch rev:             424
Checksum:              299

Satellite: WeWish
Catalog number: 38856
Epoch time:      12306.80798901
Element set:      40
Inclination:      051.6475 deg
RA of node:       157.2674 deg
Eccentricity:    0.0019568
Arg of perigee:   225.4801 deg
Mean anomaly:     134.4560 deg
Mean motion:   15.55680274 rev/day
Decay rate:     7.0080e-04 rev/day^2
Epoch rev:             425
Checksum:              298

/EX




More information about the Keps mailing list